Time,TemperatureF,DewpointF,PressureIn,WindDirection,WindDirectionDegrees,WindSpeedMPH,WindSpeedGustMPH,Humidity,HourlyPrecipIn,Conditions,Clouds,dailyrainin,SoftwareType,DateUTC
2013-01-28 00:00:00,38.4,33.1,30.10,NNW,345,1.0,5.0,81,0.00,,,0.00,WeatherCatV1.10B1784,2013-01-28 08:00:00,
2013-01-28 00:05:00,38.3,33.0,30.10,NNW,339,4.0,4.0,81,0.00,,,0.00,WeatherCatV1.10B1784,2013-01-28 08:05:00,
2013-01-28 00:10:00,38.2,32.9,30.10,NNW,342,3.0,4.0,81,0.00,,,0.00,WeatherCatV1.10B1784,2013-01-28 08:10:00,
2013-01-28 00:15:00,38.2,33.2,30.10,NNW,331,4.0,4.0,82,0.00,,,0.00,WeatherCatV1.10B1784,2013-01-28 08:15:00,
2013-01-28 00:20:00,38.2,33.2,30.10,NNW,341,3.0,4.0,82,0.00,,,0.00,WeatherCatV1.10B1784,2013-01-28 08:20:00,
2013-01-28 00:25:00,38.2,33.2,30.10,NNW,348,0.0,3.0,82,0.00,,,0.00,WeatherCatV1.10B1784,2013-01-28 08:25:00,
2013-01-28 00:30:00,38.1,33.1,30.10,NNW,339,3.0,4.0,82,0.00,,,0.00,WeatherCatV1.10B1784,2013-01-28 08:30:00,
2013-01-28 00:35:00,38.1,33.1,30.10,NNW,334,4.0,6.0,82,0.00,,,0.00,WeatherCatV1.10B1784,2013-01-28 08:35:00,
2013-01-28 00:40:00,38.1,33.1,30.10,NNW,339,2.0,4.0,82,0.00,,,0.00,WeatherCatV1.10B1784,2013-01-28 08:40:00,
2013-01-28 00:45:00,38.1,33.1,30.10,NNW,337,1.0,9.0,82,0.00,,,0.00,WeatherCatV1.10B1784,2013-01-28 08:45:00,
2013-01-28 00:50:00,38.1,33.1,30.10,NNW,331,2.0,5.0,82,0.00,,,0.00,WeatherCatV1.10B1784,2013-01-28 08:50:00,
2013-01-28 00:55:00,38.0,33.3,30.10,NNW,341,4.0,10.0,83,0.00,,,0.00,WeatherCatV1.10B1784,2013-01-28 08:55:00,
2013-01-28 01:00:00,37.9,33.2,30.10,North,356,1.0,4.0,83,0.00,,,0.00,WeatherCatV1.10B1784,2013-01-28 09:00:00,
2013-01-28 01:05:00,37.9,32.9,30.10,NNW,336,3.0,10.0,82,0.00,,,0.00,WeatherCatV1.10B1784,2013-01-28 09:05:00,
2013-01-28 01:10:00,37.9,33.2,30.10,North,351,2.0,5.0,83,0.00,,,0.00,WeatherCatV1.10B1784,2013-01-28 09:10:00,
2013-01-28 01:15:00,37.9,33.2,30.10,NNW,330,1.0,5.0,83,0.00,,,0.00,WeatherCatV1.10B1784,2013-01-28 09:15:00,
2013-01-28 01:20:00,37.9,32.9,30.10,North,356,2.0,6.0,82,0.00,,,0.00,WeatherCatV1.10B1784,2013-01-28 09:20:00,
2013-01-28 01:25:00,37.9,32.9,30.10,NNW,337,1.0,3.0,82,0.00,,,0.00,WeatherCatV1.10B1784,2013-01-28 09:25:00,
2013-01-28 01:30:00,37.9,32.9,30.10,NNW,330,3.0,5.0,82,0.00,,,0.00,WeatherCatV1.10B1784,2013-01-28 09:30:00,
2013-01-28 01:35:00,37.9,32.9,30.10,NW,307,5.0,7.0,82,0.00,,,0.00,WeatherCatV1.10B1784,2013-01-28 09:35:00,
2013-01-28 01:40:00,37.8,32.8,30.10,North,350,1.0,6.0,82,0.00,,,0.00,WeatherCatV1.10B1784,2013-01-28 09:40:00,
2013-01-28 01:45:00,37.8,32.5,30.10,NNW,339,4.0,6.0,81,0.00,,,0.00,WeatherCatV1.10B1784,2013-01-28 09:45:00,
2013-01-28 01:50:00,37.8,32.5,30.10,NNW,345,0.0,3.0,81,0.00,,,0.00,WeatherCatV1.10B1784,2013-01-28 09:50:00,
2013-01-28 01:55:00,37.7,32.4,30.10,East,92,0.0,5.0,81,0.00,,,0.00,WeatherCatV1.10B1784,2013-01-28 09:55:00,
2013-01-28 02:00:00,37.7,32.4,30.11,NNW,336,3.0,4.0,81,0.00,,,0.00,WeatherCatV1.10B1784,2013-01-28 10:00:00,
2013-01-28 02:05:00,37.7,32.4,30.11,NNW,343,0.0,6.0,81,0.00,,,0.00,WeatherCatV1.10B1784,2013-01-28 10:05:00,
2013-01-28 02:10:00,37.7,32.4,30.11,NE,34,0.0,3.0,81,0.00,,,0.00,WeatherCatV1.10B1784,2013-01-28 10:10:00,
2013-01-28 02:15:00,37.7,32.4,30.11,NNW,341,5.0,5.0,81,0.00,,,0.00,WeatherCatV1.10B1784,2013-01-28 10:15:00,
2013-01-28 02:20:00,37.7,32.4,30.11,NNW,337,3.0,5.0,81,0.00,,,0.00,WeatherCatV1.10B1784,2013-01-28 10:20:00,
2013-01-28 02:25:00,37.7,32.7,30.11,North,350,2.0,6.0,82,0.00,,,0.00,WeatherCatV1.10B1784,2013-01-28 10:25:00,
2013-01-28 02:30:00,37.6,32.3,30.11,NNW,337,2.0,6.0,81,0.00,,,0.00,WeatherCatV1.10B1784,2013-01-28 10:30:00,
2013-01-28 02:35:00,37.6,32.6,30.11,North,353,0.0,4.0,82,0.00,,,0.00,WeatherCatV1.10B1784,2013-01-28 10:35:00,
2013-01-28 02:40:00,37.6,32.6,30.11,NNW,347,2.0,4.0,82,0.00,,,0.00,WeatherCatV1.10B1784,2013-01-28 10:40:00,
2013-01-28 02:45:00,37.6,32.6,30.11,NE,39,0.0,5.0,82,0.00,,,0.00,WeatherCatV1.10B1784,2013-01-28 10:45:00,
2013-01-28 02:50:00,37.5,32.8,30.11,North,353,1.0,4.0,83,0.00,,,0.00,WeatherCatV1.10B1784,2013-01-28 10:50:00,
2013-01-28 02:55:00,37.5,32.8,30.11,NNW,345,2.0,6.0,83,0.00,,,0.00,WeatherCatV1.10B1784,2013-01-28 10:55:00,
2013-01-28 03:00:00,37.5,32.8,30.11,NNW,348,1.0,2.0,83,0.00,,,0.00,WeatherCatV1.10B1784,2013-01-28 11:00:00,
2013-01-28 03:05:00,37.5,32.8,30.11,NNW,334,2.0,3.0,83,0.00,,,0.00,WeatherCatV1.10B1784,2013-01-28 11:05:00,
2013-01-28 03:10:00,37.4,32.7,30.11,NNW,328,2.0,3.0,83,0.00,,,0.00,WeatherCatV1.10B1784,2013-01-28 11:10:00,
2013-01-28 03:15:00,37.3,32.9,30.11,NNW,341,0.0,3.0,84,0.00,,,0.00,WeatherCatV1.10B1784,2013-01-28 11:15:00,
2013-01-28 03:20:00,37.3,32.9,30.11,NNW,344,3.0,3.0,84,0.00,,,0.00,WeatherCatV1.10B1784,2013-01-28 11:20:00,
2013-01-28 03:25:00,37.3,33.2,30.11,NNW,340,2.0,2.0,85,0.00,,,0.00,WeatherCatV1.10B1784,2013-01-28 11:25:00,
2013-01-28 03:30:00,37.3,33.2,30.10,NNW,333,2.0,5.0,85,0.00,,,0.00,WeatherCatV1.10B1784,2013-01-28 11:30:00,
2013-01-28 03:35:00,37.2,33.1,30.10,NNW,336,2.0,3.0,85,0.00,,,0.00,WeatherCatV1.10B1784,2013-01-28 11:35:00,
2013-01-28 03:40:00,37.2,33.1,30.10,NNW,342,2.0,2.0,85,0.00,,,0.00,WeatherCatV1.10B1784,2013-01-28 11:40:00,
2013-01-28 03:45:00,37.0,32.9,30.11,NNW,341,2.0,3.0,85,0.00,,,0.00,WeatherCatV1.10B1784,2013-01-28 11:45:00,
2013-01-28 03:50:00,37.0,32.9,30.11,NNW,346,2.0,3.0,85,0.00,,,0.00,WeatherCatV1.10B1784,2013-01-28 11:50:00,
2013-01-28 03:55:00,37.0,32.9,30.11,NNW,327,0.0,1.0,85,0.00,,,0.00,WeatherCatV1.10B1784,2013-01-28 11:55:00,
2013-01-28 04:00:00,37.0,32.9,30.11,NNW,348,1.0,4.0,85,0.00,,,0.00,WeatherCatV1.10B1784,2013-01-28 12:00:00,
2013-01-28 04:05:00,37.0,32.9,30.11,NW,316,5.0,5.0,85,0.00,,,0.00,WeatherCatV1.10B1784,2013-01-28 12:05:00,
2013-01-28 04:10:00,36.9,32.8,30.11,NNW,333,3.0,5.0,85,0.00,,,0.00,WeatherCatV1.10B1784,2013-01-28 12:10:00,
2013-01-28 04:15:00,36.9,32.8,30.11,NNW,342,1.0,4.0,85,0.00,,,0.00,WeatherCatV1.10B1784,2013-01-28 12:15:00,
2013-01-28 04:20:00,36.8,32.7,30.11,NNW,344,0.0,3.0,85,0.00,,,0.00,WeatherCatV1.10B1784,2013-01-28 12:20:00,
2013-01-28 04:25:00,36.8,32.7,30.11,SE,131,2.0,5.0,85,0.00,,,0.00,WeatherCatV1.10B1784,2013-01-28 12:25:00,
2013-01-28 04:30:00,36.9,32.8,30.11,NNW,334,2.0,4.0,85,0.00,,,0.00,WeatherCatV1.10B1784,2013-01-28 12:30:00,
2013-01-28 04:35:00,36.9,32.8,30.11,NNW,342,0.0,5.0,85,0.00,,,0.00,WeatherCatV1.10B1784,2013-01-28 12:35:00,
2013-01-28 04:40:00,36.9,33.1,30.11,NNW,347,1.0,3.0,86,0.00,,,0.00,WeatherCatV1.10B1784,2013-01-28 12:40:00,
2013-01-28 04:45:00,36.9,33.1,30.11,NNW,339,0.0,3.0,86,0.00,,,0.00,WeatherCatV1.10B1784,2013-01-28 12:45:00,
2013-01-28 04:50:00,36.9,33.1,30.11,NNW,333,5.0,8.0,86,0.00,,,0.00,WeatherCatV1.10B1784,2013-01-28 12:50:00,
2013-01-28 04:55:00,36.8,33.0,30.11,NNW,335,3.0,4.0,86,0.00,,,0.00,WeatherCatV1.10B1784,2013-01-28 12:55:00,
2013-01-28 05:00:00,36.8,33.0,30.11,North,358,2.0,4.0,86,0.00,,,0.00,WeatherCatV1.10B1784,2013-01-28 13:00:00,
2013-01-28 05:05:00,36.8,33.0,30.11,North,349,2.0,2.0,86,0.00,,,0.00,WeatherCatV1.10B1784,2013-01-28 13:05:00,
2013-01-28 05:10:00,36.8,33.0,30.11,North,353,2.0,3.0,86,0.00,,,0.00,WeatherCatV1.10B1784,2013-01-28 13:10:00,
2013-01-28 05:15:00,36.8,33.0,30.11,NNW,332,3.0,3.0,86,0.00,,,0.00,WeatherCatV1.10B1784,2013-01-28 13:15:00,
2013-01-28 05:20:00,36.7,32.6,30.11,NNW,343,2.0,4.0,85,0.00,,,0.00,WeatherCatV1.10B1784,2013-01-28 13:20:00,
2013-01-28 05:25:00,36.6,32.5,30.11,North,356,2.0,3.0,85,0.00,,,0.00,WeatherCatV1.10B1784,2013-01-28 13:25:00,
2013-01-28 05:30:00,36.8,32.4,30.11,NNW,333,0.0,4.0,84,0.00,,,0.00,WeatherCatV1.10B1784,2013-01-28 13:30:00,
2013-01-28 05:35:00,36.8,32.4,30.11,North,1,0.0,5.0,84,0.00,,,0.00,WeatherCatV1.10B1784,2013-01-28 13:35:00,
2013-01-28 05:40:00,36.8,32.4,30.11,North,1,0.0,1.0,84,0.00,,,0.00,WeatherCatV1.10B1784,2013-01-28 13:40:00,
2013-01-28 05:45:00,36.6,32.2,30.11,North,350,0.0,0.0,84,0.00,,,0.00,WeatherCatV1.10B1784,2013-01-28 13:45:00,
2013-01-28 05:50:00,36.5,32.1,30.11,NNW,341,0.0,0.0,84,0.00,,,0.00,WeatherCatV1.10B1784,2013-01-28 13:50:00,
2013-01-28 05:55:00,36.4,32.0,30.11,NNW,343,0.0,2.0,84,0.00,,,0.00,WeatherCatV1.10B1784,2013-01-28 13:55:00,
2013-01-28 06:00:00,36.4,32.0,30.12,SE,146,0.0,0.0,84,0.00,,,0.00,WeatherCatV1.10B1784,2013-01-28 14:00:00,
2013-01-28 06:05:00,36.4,32.3,30.12,NNW,341,1.0,4.0,85,0.00,,,0.00,WeatherCatV1.10B1784,2013-01-28 14:05:00,
2013-01-28 06:10:00,36.6,32.8,30.12,North,4,0.0,3.0,86,0.00,,,0.00,WeatherCatV1.10B1784,2013-01-28 14:10:00,
2013-01-28 06:15:00,36.6,32.8,30.12,North,5,0.0,0.0,86,0.00,,,0.00,WeatherCatV1.10B1784,2013-01-28 14:15:00,
2013-01-28 06:20:00,36.6,32.8,30.12,ESE,117,0.0,0.0,86,0.00,,,0.00,WeatherCatV1.10B1784,2013-01-28 14:20:00,
2013-01-28 06:25:00,36.6,33.1,30.12,North,357,0.0,1.0,87,0.00,,,0.00,WeatherCatV1.10B1784,2013-01-28 14:25:00,
2013-01-28 06:30:00,36.7,33.5,30.12,NNW,327,0.0,0.0,88,0.00,,,0.00,WeatherCatV1.10B1784,2013-01-28 14:30:00,
2013-01-28 06:35:00,36.7,33.5,30.12,NNW,327,0.0,0.0,88,0.00,,,0.00,WeatherCatV1.10B1784,2013-01-28 14:35:00,
2013-01-28 06:40:00,36.8,33.6,30.12,NNW,327,0.0,0.0,88,0.00,,,0.00,WeatherCatV1.10B1784,2013-01-28 14:40:00,
2013-01-28 06:45:00,36.9,33.7,30.13,NNW,327,0.0,0.0,88,0.00,,,0.00,WeatherCatV1.10B1784,2013-01-28 14:45:00,
2013-01-28 06:50:00,36.9,33.7,30.13,NNW,327,0.0,0.0,88,0.00,,,0.00,WeatherCatV1.10B1784,2013-01-28 14:50:00,
2013-01-28 06:55:00,37.0,34.1,30.13,NNW,327,0.0,0.0,89,0.00,,,0.00,WeatherCatV1.10B1784,2013-01-28 14:55:00,
2013-01-28 07:00:00,37.1,34.2,30.13,NNW,327,0.0,0.0,89,0.00,,,0.00,WeatherCatV1.10B1784,2013-01-28 15:00:00,
2013-01-28 07:05:00,37.2,34.3,30.13,NNW,327,0.0,0.0,89,0.00,,,0.00,WeatherCatV1.10B1784,2013-01-28 15:05:00,
2013-01-28 07:10:00,37.3,34.4,30.13,NNW,327,0.0,0.0,89,0.00,,,0.00,WeatherCatV1.10B1784,2013-01-28 15:10:00,
2013-01-28 07:15:00,37.5,34.6,30.14,NNW,327,0.0,0.0,89,0.00,,,0.00,WeatherCatV1.10B1784,2013-01-28 15:15:00,
2013-01-28 07:20:00,37.6,34.9,30.14,NNW,327,0.0,0.0,90,0.00,,,0.00,WeatherCatV1.10B1784,2013-01-28 15:20:00,
2013-01-28 07:25:00,37.8,34.9,30.14,NNW,327,0.0,0.0,89,0.00,,,0.00,WeatherCatV1.10B1784,2013-01-28 15:25:00,
2013-01-28 07:30:00,37.9,35.0,30.13,NNW,332,0.0,1.0,89,0.00,,,0.00,WeatherCatV1.10B1784,2013-01-28 15:30:00,
2013-01-28 07:35:00,37.9,35.0,30.13,NNW,332,0.0,0.0,89,0.00,,,0.00,WeatherCatV1.10B1784,2013-01-28 15:35:00,
2013-01-28 07:40:00,37.9,34.7,30.13,NNW,332,0.0,0.0,88,0.00,,,0.00,WeatherCatV1.10B1784,2013-01-28 15:40:00,
2013-01-28 07:45:00,37.9,34.7,30.13,NNW,332,0.0,0.0,88,0.00,,,0.00,WeatherCatV1.10B1784,2013-01-28 15:45:00,
2013-01-28 07:50:00,38.0,34.8,30.13,NNW,332,0.0,0.0,88,0.00,,,0.00,WeatherCatV1.10B1784,2013-01-28 15:50:00,
2013-01-28 07:55:00,38.0,34.5,30.13,NNW,332,0.0,0.0,87,0.00,,,0.00,WeatherCatV1.10B1784,2013-01-28 15:55:00,
2013-01-28 08:00:00,37.9,34.4,30.13,NNW,332,0.0,0.0,87,0.00,,,0.00,WeatherCatV1.10B1784,2013-01-28 16:00:00,
2013-01-28 08:05:00,37.9,34.4,30.13,NNW,332,0.0,0.0,87,0.00,,,0.00,WeatherCatV1.10B1784,2013-01-28 16:05:00,
2013-01-28 08:10:00,37.9,34.4,30.13,NNW,332,0.0,0.0,87,0.00,,,0.00,WeatherCatV1.10B1784,2013-01-28 16:10:00,
2013-01-28 08:15:00,37.9,34.4,30.14,NNW,332,0.0,0.0,87,0.00,,,0.00,WeatherCatV1.10B1784,2013-01-28 16:15:00,
2013-01-28 08:20:00,38.0,34.5,30.14,NNW,332,0.0,0.0,87,0.00,,,0.00,WeatherCatV1.10B1784,2013-01-28 16:20:00,
2013-01-28 08:25:00,38.2,34.7,30.14,NNW,332,0.0,0.0,87,0.00,,,0.00,WeatherCatV1.10B1784,2013-01-28 16:25:00,
2013-01-28 08:30:00,38.3,35.1,30.15,NNW,333,0.0,0.0,88,0.00,,,0.00,WeatherCatV1.10B1784,2013-01-28 16:30:00,
2013-01-28 08:35:00,38.4,35.2,30.15,NNW,333,0.0,0.0,88,0.00,,,0.00,WeatherCatV1.10B1784,2013-01-28 16:35:00,
2013-01-28 08:40:00,38.5,35.5,30.15,NNW,333,0.0,0.0,89,0.00,,,0.00,WeatherCatV1.10B1784,2013-01-28 16:40:00,
2013-01-28 08:45:00,38.7,36.3,30.15,NNW,333,0.0,0.0,91,0.00,,,0.00,WeatherCatV1.10B1784,2013-01-28 16:45:00,
2013-01-28 08:50:00,38.8,36.4,30.15,NNW,333,0.0,0.0,91,0.00,,,0.00,WeatherCatV1.10B1784,2013-01-28 16:50:00,
2013-01-28 08:55:00,38.9,36.5,30.15,NNW,333,0.0,1.0,91,0.00,,,0.00,WeatherCatV1.10B1784,2013-01-28 16:55:00,
2013-01-28 09:00:00,39.1,37.0,30.15,North,351,0.0,2.0,92,0.00,,,0.00,WeatherCatV1.10B1784,2013-01-28 17:00:00,
2013-01-28 09:05:00,39.2,37.1,30.15,NW,313,1.0,1.0,92,0.00,,,0.00,WeatherCatV1.10B1784,2013-01-28 17:05:00,
2013-01-28 09:10:00,39.4,37.3,30.15,NNW,331,0.0,0.0,92,0.00,,,0.00,WeatherCatV1.10B1784,2013-01-28 17:10:00,
2013-01-28 09:15:00,39.5,37.4,30.16,NNW,347,0.0,1.0,92,0.00,,,0.00,WeatherCatV1.10B1784,2013-01-28 17:15:00,
2013-01-28 09:20:00,39.5,37.4,30.16,East,94,0.0,4.0,92,0.00,,,0.00,WeatherCatV1.10B1784,2013-01-28 17:20:00,
2013-01-28 09:25:00,39.5,37.4,30.16,NNE,12,0.0,2.0,92,0.00,,,0.00,WeatherCatV1.10B1784,2013-01-28 17:25:00,
2013-01-28 09:30:00,39.5,37.4,30.16,NNW,348,0.0,2.0,92,0.00,,,0.00,WeatherCatV1.10B1784,2013-01-28 17:30:00,
2013-01-28 09:35:00,39.5,37.6,30.16,NNW,345,0.0,1.0,93,0.00,,,0.00,WeatherCatV1.10B1784,2013-01-28 17:35:00,
2013-01-28 09:40:00,39.5,37.6,30.16,NNW,348,0.0,2.0,93,0.00,,,0.00,WeatherCatV1.10B1784,2013-01-28 17:40:00,
2013-01-28 09:45:00,39.5,37.9,30.16,North,354,0.0,0.0,94,0.00,,,0.00,WeatherCatV1.10B1784,2013-01-28 17:45:00,
2013-01-28 09:50:00,39.5,37.9,30.16,NNW,331,0.0,3.0,94,0.00,,,0.00,WeatherCatV1.10B1784,2013-01-28 17:50:00,
2013-01-28 09:55:00,39.5,37.6,30.16,NNW,328,1.0,1.0,93,0.00,,,0.00,WeatherCatV1.10B1784,2013-01-28 17:55:00,
2013-01-28 10:00:00,39.5,37.9,30.16,NNW,343,0.0,1.0,94,0.00,,,0.00,WeatherCatV1.10B1784,2013-01-28 18:00:00,
2013-01-28 10:05:00,39.4,37.5,30.16,NNW,341,3.0,4.0,93,0.00,,,0.00,WeatherCatV1.10B1784,2013-01-28 18:05:00,
2013-01-28 10:10:00,39.3,37.4,30.16,North,352,3.0,4.0,93,0.00,,,0.00,WeatherCatV1.10B1784,2013-01-28 18:10:00,
2013-01-28 10:15:00,39.6,37.7,30.17,NNW,331,0.0,2.0,93,0.00,,,0.00,WeatherCatV1.10B1784,2013-01-28 18:15:00,
2013-01-28 10:20:00,40.4,38.3,30.17,North,352,2.0,2.0,92,0.00,,,0.00,WeatherCatV1.10B1784,2013-01-28 18:20:00,
2013-01-28 10:25:00,41.1,38.1,30.17,NNW,340,2.0,7.0,89,0.00,,,0.00,WeatherCatV1.10B1784,2013-01-28 18:25:00,
2013-01-28 10:30:00,41.8,38.5,30.17,NNW,343,0.0,4.0,88,0.00,,,0.00,WeatherCatV1.10B1784,2013-01-28 18:30:00,
2013-01-28 10:35:00,42.4,38.8,30.17,North,352,1.0,2.0,87,0.00,,,0.00,WeatherCatV1.10B1784,2013-01-28 18:35:00,
2013-01-28 10:40:00,43.0,38.8,30.17,NNW,334,0.0,4.0,85,0.00,,,0.00,WeatherCatV1.10B1784,2013-01-28 18:40:00,
2013-01-28 10:45:00,43.4,38.3,30.18,NNE,18,3.0,5.0,82,0.00,,,0.00,WeatherCatV1.10B1784,2013-01-28 18:45:00,
2013-01-28 10:50:00,43.5,38.4,30.18,NNW,335,2.0,3.0,82,0.00,,,0.00,WeatherCatV1.10B1784,2013-01-28 18:50:00,
2013-01-28 10:55:00,44.0,38.9,30.18,NW,305,1.0,1.0,82,0.00,,,0.00,WeatherCatV1.10B1784,2013-01-28 18:55:00,
2013-01-28 11:00:00,44.1,38.3,30.18,NNW,333,3.0,6.0,80,0.00,,,0.00,WeatherCatV1.10B1784,2013-01-28 19:00:00,
2013-01-28 11:05:00,44.1,38.6,30.18,North,7,0.0,5.0,81,0.00,,,0.00,WeatherCatV1.10B1784,2013-01-28 19:05:00,
2013-01-28 11:10:00,44.7,38.9,30.18,NW,325,5.0,5.0,80,0.00,,,0.00,WeatherCatV1.10B1784,2013-01-28 19:10:00,
2013-01-28 11:15:00,44.6,38.2,30.19,North,352,2.0,7.0,78,0.00,,,0.00,WeatherCatV1.10B1784,2013-01-28 19:15:00,
2013-01-28 11:20:00,44.7,38.3,30.19,North,357,1.0,2.0,78,0.00,,,0.00,WeatherCatV1.10B1784,2013-01-28 19:20:00,
2013-01-28 11:25:00,45.4,39.3,30.19,NNW,337,2.0,3.0,79,0.00,,,0.00,WeatherCatV1.10B1784,2013-01-28 19:25:00,
2013-01-28 11:30:00,45.9,39.8,30.19,ESE,116,0.0,1.0,79,0.00,,,0.00,WeatherCatV1.10B1784,2013-01-28 19:30:00,
2013-01-28 11:35:00,46.5,39.7,30.19,North,353,0.0,3.0,77,0.00,,,0.00,WeatherCatV1.10B1784,2013-01-28 19:35:00,
2013-01-28 11:40:00,46.3,39.5,30.19,NNW,337,3.0,3.0,77,0.00,,,0.00,WeatherCatV1.10B1784,2013-01-28 19:40:00,
2013-01-28 11:45:00,46.2,39.1,30.19,East,98,1.0,6.0,76,0.00,,,0.00,WeatherCatV1.10B1784,2013-01-28 19:45:00,
2013-01-28 11:50:00,45.9,38.4,30.19,North,5,0.0,6.0,75,0.00,,,0.00,WeatherCatV1.10B1784,2013-01-28 19:50:00,
2013-01-28 11:55:00,45.9,38.8,30.19,NNE,23,4.0,5.0,76,0.00,,,0.00,WeatherCatV1.10B1784,2013-01-28 19:55:00,
2013-01-28 12:00:00,45.8,37.6,30.19,NNE,22,0.0,2.0,73,0.00,,,0.00,WeatherCatV1.10B1784,2013-01-28 20:00:00,
2013-01-28 12:05:00,46.1,37.6,30.19,NNW,342,1.0,6.0,72,0.00,,,0.00,WeatherCatV1.10B1784,2013-01-28 20:05:00,
2013-01-28 12:10:00,46.5,38.3,30.19,North,356,0.0,2.0,73,0.00,,,0.00,WeatherCatV1.10B1784,2013-01-28 20:10:00,
2013-01-28 12:15:00,46.7,37.4,30.18,NNW,333,0.0,5.0,70,0.00,,,0.00,WeatherCatV1.10B1784,2013-01-28 20:15:00,
2013-01-28 12:20:00,46.8,37.5,30.18,NNW,336,0.0,7.0,70,0.00,,,0.00,WeatherCatV1.10B1784,2013-01-28 20:20:00,
2013-01-28 12:25:00,46.9,37.3,30.18,NNW,346,0.0,6.0,69,0.00,,,0.00,WeatherCatV1.10B1784,2013-01-28 20:25:00,
2013-01-28 12:30:00,47.0,36.6,30.18,North,356,0.0,9.0,67,0.00,,,0.00,WeatherCatV1.10B1784,2013-01-28 20:30:00,
2013-01-28 12:35:00,46.7,36.3,30.18,NNW,333,2.0,2.0,67,0.00,,,0.00,WeatherCatV1.10B1784,2013-01-28 20:35:00,
2013-01-28 12:40:00,46.6,36.6,30.18,NNW,340,7.0,7.0,68,0.00,,,0.00,WeatherCatV1.10B1784,2013-01-28 20:40:00,
2013-01-28 12:45:00,46.6,37.0,30.18,NNE,14,0.0,2.0,69,0.00,,,0.00,WeatherCatV1.10B1784,2013-01-28 20:45:00,
2013-01-28 12:50:00,46.6,36.2,30.18,NNW,337,0.0,2.0,67,0.00,,,0.00,WeatherCatV1.10B1784,2013-01-28 20:50:00,
2013-01-28 12:55:00,46.8,36.4,30.18,NNW,343,0.0,5.0,67,0.00,,,0.00,WeatherCatV1.10B1784,2013-01-28 20:55:00,
2013-01-28 13:00:00,47.1,36.3,30.18,NW,323,2.0,6.0,66,0.00,,,0.00,WeatherCatV1.10B1784,2013-01-28 21:00:00,
2013-01-28 13:05:00,47.0,35.9,30.18,NNW,341,2.0,2.0,65,0.00,,,0.00,WeatherCatV1.10B1784,2013-01-28 21:05:00,
2013-01-28 13:10:00,46.9,35.8,30.18,North,349,6.0,8.0,65,0.00,,,0.00,WeatherCatV1.10B1784,2013-01-28 21:10:00,
2013-01-28 13:15:00,46.7,36.0,30.18,North,358,0.0,4.0,66,0.00,,,0.00,WeatherCatV1.10B1784,2013-01-28 21:15:00,
2013-01-28 13:20:00,46.8,35.7,30.18,NNW,348,2.0,6.0,65,0.00,,,0.00,WeatherCatV1.10B1784,2013-01-28 21:20:00,
2013-01-28 13:25:00,46.8,36.0,30.18,NNW,335,2.0,2.0,66,0.00,,,0.00,WeatherCatV1.10B1784,2013-01-28 21:25:00,
2013-01-28 13:30:00,47.0,35.9,30.17,North,5,0.0,2.0,65,0.00,,,0.00,WeatherCatV1.10B1784,2013-01-28 21:30:00,
2013-01-28 13:35:00,47.3,36.1,30.17,NNW,330,5.0,7.0,65,0.00,,,0.00,WeatherCatV1.10B1784,2013-01-28 21:35:00,
2013-01-28 13:40:00,47.2,35.3,30.17,SSE,152,1.0,4.0,63,0.00,,,0.00,WeatherCatV1.10B1784,2013-01-28 21:40:00,
2013-01-28 13:45:00,47.4,35.4,30.18,NE,48,0.0,4.0,63,0.00,,,0.00,WeatherCatV1.10B1784,2013-01-28 21:45:00,
2013-01-28 13:50:00,47.8,35.4,30.18,NNE,31,0.0,3.0,62,0.00,,,0.00,WeatherCatV1.10B1784,2013-01-28 21:50:00,
2013-01-28 13:55:00,47.8,35.8,30.18,North,350,0.0,2.0,63,0.00,,,0.00,WeatherCatV1.10B1784,2013-01-28 21:55:00,
2013-01-28 14:00:00,47.7,35.3,30.17,NNW,346,2.0,3.0,62,0.00,,,0.00,WeatherCatV1.10B1784,2013-01-28 22:00:00,
2013-01-28 14:05:00,47.7,34.9,30.17,NNW,345,0.0,1.0,61,0.00,,,0.00,WeatherCatV1.10B1784,2013-01-28 22:05:00,
2013-01-28 14:10:00,47.6,35.2,30.17,NNW,344,1.0,2.0,62,0.00,,,0.00,WeatherCatV1.10B1784,2013-01-28 22:10:00,
2013-01-28 14:15:00,47.7,36.1,30.17,North,9,1.0,3.0,64,0.00,,,0.00,WeatherCatV1.10B1784,2013-01-28 22:15:00,
2013-01-28 14:20:00,47.5,34.7,30.17,NNW,333,2.0,4.0,61,0.00,,,0.00,WeatherCatV1.10B1784,2013-01-28 22:20:00,
2013-01-28 14:25:00,47.3,34.5,30.17,ENE,73,0.0,2.0,61,0.00,,,0.00,WeatherCatV1.10B1784,2013-01-28 22:25:00,
2013-01-28 14:30:00,47.3,34.5,30.18,NNW,337,0.0,5.0,61,0.00,,,0.00,WeatherCatV1.10B1784,2013-01-28 22:30:00,
2013-01-28 14:35:00,47.4,34.6,30.18,NNW,333,0.0,2.0,61,0.00,,,0.00,WeatherCatV1.10B1784,2013-01-28 22:35:00,
2013-01-28 14:40:00,47.6,36.0,30.18,NNW,341,1.0,2.0,64,0.00,,,0.00,WeatherCatV1.10B1784,2013-01-28 22:40:00,
2013-01-28 14:45:00,47.6,34.8,30.17,NNW,328,2.0,2.0,61,0.00,,,0.00,WeatherCatV1.10B1784,2013-01-28 22:45:00,
2013-01-28 14:50:00,47.5,34.3,30.17,NNW,333,7.0,7.0,60,0.00,,,0.00,WeatherCatV1.10B1784,2013-01-28 22:50:00,
2013-01-28 14:55:00,47.3,34.9,30.17,NNW,339,0.0,3.0,62,0.00,,,0.00,WeatherCatV1.10B1784,2013-01-28 22:55:00,
2013-01-28 15:00:00,47.2,34.9,30.18,NNW,335,1.0,5.0,62,0.00,,,0.00,WeatherCatV1.10B1784,2013-01-28 23:00:00,
2013-01-28 15:05:00,47.2,34.9,30.18,NNW,341,3.0,7.0,62,0.00,,,0.00,WeatherCatV1.10B1784,2013-01-28 23:05:00,
2013-01-28 15:10:00,47.2,34.4,30.18,NNW,329,3.0,4.0,61,0.00,,,0.00,WeatherCatV1.10B1784,2013-01-28 23:10:00,
2013-01-28 15:15:00,47.1,33.9,30.18,North,358,2.0,4.0,60,0.00,,,0.00,WeatherCatV1.10B1784,2013-01-28 23:15:00,
2013-01-28 15:20:00,46.9,34.2,30.18,North,352,1.0,8.0,61,0.00,,,0.00,WeatherCatV1.10B1784,2013-01-28 23:20:00,
2013-01-28 15:25:00,46.9,34.6,30.18,North,2,3.0,5.0,62,0.00,,,0.00,WeatherCatV1.10B1784,2013-01-28 23:25:00,
2013-01-28 15:30:00,46.9,34.2,30.18,ESE,110,0.0,5.0,61,0.00,,,0.00,WeatherCatV1.10B1784,2013-01-28 23:30:00,
2013-01-28 15:35:00,46.9,33.8,30.18,NNW,341,1.0,4.0,60,0.00,,,0.00,WeatherCatV1.10B1784,2013-01-28 23:35:00,
2013-01-28 15:40:00,46.9,34.6,30.18,NNW,331,2.0,3.0,62,0.00,,,0.00,WeatherCatV1.10B1784,2013-01-28 23:40:00,
2013-01-28 15:45:00,47.0,34.7,30.18,NNW,334,0.0,1.0,62,0.00,,,0.00,WeatherCatV1.10B1784,2013-01-28 23:45:00,
2013-01-28 15:50:00,47.1,34.8,30.18,NNW,346,0.0,0.0,62,0.00,,,0.00,WeatherCatV1.10B1784,2013-01-28 23:50:00,
2013-01-28 15:55:00,47.1,35.2,30.18,NNW,346,0.0,0.0,63,0.00,,,0.00,WeatherCatV1.10B1784,2013-01-28 23:55:00,
2013-01-28 16:00:00,47.1,35.2,30.18,NNW,337,0.0,1.0,63,0.00,,,0.00,WeatherCatV1.10B1784,2013-01-29 00:00:00,
2013-01-28 16:05:00,47.0,34.7,30.18,NNW,343,1.0,2.0,62,0.00,,,0.00,WeatherCatV1.10B1784,2013-01-29 00:05:00,
2013-01-28 16:10:00,46.8,34.9,30.18,NNW,339,0.0,0.0,63,0.00,,,0.00,WeatherCatV1.10B1784,2013-01-29 00:10:00,
2013-01-28 16:15:00,46.8,35.3,30.19,NNW,339,0.0,0.0,64,0.00,,,0.00,WeatherCatV1.10B1784,2013-01-29 00:15:00,
2013-01-28 16:20:00,46.7,35.2,30.19,NNW,342,1.0,3.0,64,0.00,,,0.00,WeatherCatV1.10B1784,2013-01-29 00:20:00,
2013-01-28 16:25:00,46.5,35.4,30.19,NNW,337,0.0,2.0,65,0.00,,,0.00,WeatherCatV1.10B1784,2013-01-29 00:25:00,
2013-01-28 16:30:00,46.3,35.6,30.18,NNW,333,1.0,1.0,66,0.00,,,0.00,WeatherCatV1.10B1784,2013-01-29 00:30:00,
2013-01-28 16:35:00,46.2,35.9,30.18,NNW,333,0.0,0.0,67,0.00,,,0.00,WeatherCatV1.10B1784,2013-01-29 00:35:00,
2013-01-28 16:40:00,46.1,36.1,30.18,NNW,333,0.0,1.0,68,0.00,,,0.00,WeatherCatV1.10B1784,2013-01-29 00:40:00,
2013-01-28 16:45:00,45.9,35.9,30.19,NNW,333,0.0,0.0,68,0.00,,,0.00,WeatherCatV1.10B1784,2013-01-29 00:45:00,
2013-01-28 16:50:00,45.9,35.9,30.19,NE,53,0.0,1.0,68,0.00,,,0.00,WeatherCatV1.10B1784,2013-01-29 00:50:00,
2013-01-28 16:55:00,45.7,36.1,30.19,NW,326,3.0,3.0,69,0.00,,,0.00,WeatherCatV1.10B1784,2013-01-29 00:55:00,
2013-01-28 17:00:00,45.6,36.7,30.19,NNW,338,1.0,2.0,71,0.00,,,0.00,WeatherCatV1.10B1784,2013-01-29 01:00:00,
2013-01-28 17:05:00,45.5,36.7,30.19,North,354,1.0,1.0,71,0.00,,,0.00,WeatherCatV1.10B1784,2013-01-29 01:05:00,
2013-01-28 17:10:00,45.3,36.5,30.19,North,349,0.0,2.0,71,0.00,,,0.00,WeatherCatV1.10B1784,2013-01-29 01:10:00,
2013-01-28 17:15:00,45.2,36.7,30.20,North,349,0.0,0.0,72,0.00,,,0.00,WeatherCatV1.10B1784,2013-01-29 01:15:00,
2013-01-28 17:20:00,45.1,37.0,30.20,North,349,0.0,0.0,73,0.00,,,0.00,WeatherCatV1.10B1784,2013-01-29 01:20:00,
2013-01-28 17:25:00,44.9,36.8,30.20,North,349,0.0,0.0,73,0.00,,,0.00,WeatherCatV1.10B1784,2013-01-29 01:25:00,
2013-01-28 17:30:00,44.7,36.6,30.20,NNW,347,0.0,0.0,73,0.00,,,0.00,WeatherCatV1.10B1784,2013-01-29 01:30:00,
2013-01-28 17:35:00,44.5,36.7,30.20,NNW,347,0.0,1.0,74,0.00,,,0.00,WeatherCatV1.10B1784,2013-01-29 01:35:00,
2013-01-28 17:40:00,44.3,36.9,30.20,NNW,345,0.0,1.0,75,0.00,,,0.00,WeatherCatV1.10B1784,2013-01-29 01:40:00,
2013-01-28 17:45:00,44.2,36.8,30.20,NNW,345,0.0,1.0,75,0.00,,,0.00,WeatherCatV1.10B1784,2013-01-29 01:45:00,
2013-01-28 17:50:00,44.0,36.9,30.20,NNW,345,0.0,0.0,76,0.00,,,0.00,WeatherCatV1.10B1784,2013-01-29 01:50:00,
2013-01-28 17:55:00,43.8,36.4,30.20,NNW,331,1.0,1.0,75,0.00,,,0.00,WeatherCatV1.10B1784,2013-01-29 01:55:00,
2013-01-28 18:00:00,43.7,36.3,30.21,NNW,331,0.0,0.0,75,0.00,,,0.00,WeatherCatV1.10B1784,2013-01-29 02:00:00,
2013-01-28 18:05:00,43.6,36.5,30.21,NNW,331,0.0,0.0,76,0.00,,,0.00,WeatherCatV1.10B1784,2013-01-29 02:05:00,
2013-01-28 18:10:00,43.4,36.3,30.21,NNW,331,0.0,0.0,76,0.00,,,0.00,WeatherCatV1.10B1784,2013-01-29 02:10:00,
2013-01-28 18:15:00,43.1,36.1,30.21,NNW,335,0.0,0.0,76,0.00,,,0.00,WeatherCatV1.10B1784,2013-01-29 02:15:00,
2013-01-28 18:20:00,42.9,35.9,30.21,NNW,335,0.0,0.0,76,0.00,,,0.00,WeatherCatV1.10B1784,2013-01-29 02:20:00,
2013-01-28 18:25:00,42.8,35.8,30.21,NNW,335,0.0,0.0,76,0.00,,,0.00,WeatherCatV1.10B1784,2013-01-29 02:25:00,
2013-01-28 18:30:00,42.8,36.1,30.22,NNW,335,0.0,1.0,77,0.00,,,0.00,WeatherCatV1.10B1784,2013-01-29 02:30:00,
2013-01-28 18:35:00,42.7,36.0,30.22,NNW,335,0.0,0.0,77,0.00,,,0.00,WeatherCatV1.10B1784,2013-01-29 02:35:00,
2013-01-28 18:40:00,42.6,35.9,30.22,NNW,335,0.0,0.0,77,0.00,,,0.00,WeatherCatV1.10B1784,2013-01-29 02:40:00,
2013-01-28 18:45:00,42.5,36.1,30.22,NNW,335,0.0,0.0,78,0.00,,,0.00,WeatherCatV1.10B1784,2013-01-29 02:45:00,
2013-01-28 18:50:00,42.4,36.4,30.22,NNW,327,0.0,0.0,79,0.00,,,0.00,WeatherCatV1.10B1784,2013-01-29 02:50:00,
2013-01-28 18:55:00,42.3,36.6,30.22,NNW,327,0.0,0.0,80,0.00,,,0.00,WeatherCatV1.10B1784,2013-01-29 02:55:00,
2013-01-28 19:00:00,42.2,36.8,30.23,NNW,327,0.0,1.0,81,0.00,,,0.00,WeatherCatV1.10B1784,2013-01-29 03:00:00,
2013-01-28 19:05:00,42.1,36.7,30.23,NNW,340,0.0,4.0,81,0.00,,,0.00,WeatherCatV1.10B1784,2013-01-29 03:05:00,
2013-01-28 19:10:00,42.2,37.1,30.23,NNW,331,2.0,3.0,82,0.00,,,0.00,WeatherCatV1.10B1784,2013-01-29 03:10:00,
2013-01-28 19:15:00,42.4,37.3,30.23,North,354,1.0,4.0,82,0.00,,,0.00,WeatherCatV1.10B1784,2013-01-29 03:15:00,
2013-01-28 19:20:00,42.6,37.2,30.23,NNW,339,2.0,2.0,81,0.00,,,0.00,WeatherCatV1.10B1784,2013-01-29 03:20:00,
2013-01-28 19:25:00,42.6,37.2,30.23,NNW,333,1.0,3.0,81,0.00,,,0.00,WeatherCatV1.10B1784,2013-01-29 03:25:00,
2013-01-28 19:30:00,42.7,37.3,30.23,North,355,2.0,4.0,81,0.00,,,0.00,WeatherCatV1.10B1784,2013-01-29 03:30:00,
2013-01-28 19:35:00,42.7,37.3,30.23,North,350,1.0,4.0,81,0.00,,,0.00,WeatherCatV1.10B1784,2013-01-29 03:35:00,
2013-01-28 19:40:00,42.7,37.3,30.23,NNW,345,2.0,4.0,81,0.00,,,0.00,WeatherCatV1.10B1784,2013-01-29 03:40:00,
2013-01-28 19:45:00,42.7,37.6,30.24,NW,326,1.0,4.0,82,0.00,,,0.00,WeatherCatV1.10B1784,2013-01-29 03:45:00,
2013-01-28 19:50:00,42.8,37.7,30.24,NNW,335,2.0,4.0,82,0.00,,,0.00,WeatherCatV1.10B1784,2013-01-29 03:50:00,
2013-01-28 19:55:00,42.7,37.6,30.24,NNW,333,4.0,5.0,82,0.00,,,0.00,WeatherCatV1.10B1784,2013-01-29 03:55:00,
2013-01-28 20:00:00,42.7,37.6,30.23,NNW,341,3.0,3.0,82,0.00,,,0.00,WeatherCatV1.10B1784,2013-01-29 04:00:00,
2013-01-28 20:05:00,42.3,37.2,30.23,NNW,339,4.0,4.0,82,0.00,,,0.00,WeatherCatV1.10B1784,2013-01-29 04:05:00,
2013-01-28 20:10:00,41.8,37.0,30.23,NNW,333,3.0,5.0,83,0.00,,,0.00,WeatherCatV1.10B1784,2013-01-29 04:10:00,
2013-01-28 20:15:00,41.7,36.9,30.23,NNW,336,3.0,6.0,83,0.00,,,0.00,WeatherCatV1.10B1784,2013-01-29 04:15:00,
2013-01-28 20:20:00,42.0,36.9,30.23,NNW,343,4.0,5.0,82,0.00,,,0.00,WeatherCatV1.10B1784,2013-01-29 04:20:00,
2013-01-28 20:25:00,42.4,37.0,30.23,North,352,3.0,4.0,81,0.00,,,0.00,WeatherCatV1.10B1784,2013-01-29 04:25:00,
2013-01-28 20:30:00,42.6,36.9,30.23,North,349,4.0,5.0,80,0.00,,,0.00,WeatherCatV1.10B1784,2013-01-29 04:30:00,
2013-01-28 20:35:00,42.7,36.6,30.23,NNW,339,5.0,8.0,79,0.00,,,0.00,WeatherCatV1.10B1784,2013-01-29 04:35:00,
2013-01-28 20:40:00,42.7,36.6,30.23,NNW,341,4.0,9.0,79,0.00,,,0.00,WeatherCatV1.10B1784,2013-01-29 04:40:00,
2013-01-28 20:45:00,42.7,36.6,30.23,NNW,337,5.0,6.0,79,0.00,,,0.00,WeatherCatV1.10B1784,2013-01-29 04:45:00,
2013-01-28 20:50:00,42.7,36.6,30.23,NNW,331,3.0,5.0,79,0.00,,,0.00,WeatherCatV1.10B1784,2013-01-29 04:50:00,
2013-01-28 20:55:00,42.5,36.5,30.23,NNW,343,3.0,7.0,79,0.00,,,0.00,WeatherCatV1.10B1784,2013-01-29 04:55:00,
2013-01-28 21:00:00,42.5,36.5,30.23,NNW,332,5.0,5.0,79,0.00,,,0.00,WeatherCatV1.10B1784,2013-01-29 05:00:00,
2013-01-28 21:01:00,42.5,36.5,30.23,NNW,339,5.0,6.0,79,0.00,,,0.00,WeatherCatV1.10B1784,2013-01-29 05:01:00,
2013-01-28 21:06:00,42.5,36.8,30.23,NNW,340,7.0,8.0,80,0.00,,,0.00,WeatherCatV1.10B1784,2013-01-29 05:06:00,
2013-01-28 21:11:00,42.6,36.9,30.23,North,359,6.0,7.0,80,0.00,,,0.00,WeatherCatV1.10B1784,2013-01-29 05:11:00,
2013-01-28 21:16:00,42.6,36.9,30.23,NNW,348,6.0,7.0,80,0.00,,,0.00,WeatherCatV1.10B1784,2013-01-29 05:16:00,
2013-01-28 21:21:00,42.5,36.8,30.23,NNW,346,6.0,10.0,80,0.00,,,0.00,WeatherCatV1.10B1784,2013-01-29 05:21:00,
2013-01-28 21:26:00,42.7,37.0,30.23,NNW,339,7.0,10.0,80,0.00,,,0.00,WeatherCatV1.10B1784,2013-01-29 05:26:00,
2013-01-28 21:31:00,42.8,36.7,30.23,NNW,343,5.0,8.0,79,0.00,,,0.00,WeatherCatV1.10B1784,2013-01-29 05:31:00,
2013-01-28 21:36:00,42.8,36.7,30.23,North,349,5.0,8.0,79,0.00,,,0.00,WeatherCatV1.10B1784,2013-01-29 05:36:00,
2013-01-28 21:41:00,42.8,37.1,30.23,NNW,340,5.0,9.0,80,0.00,,,0.00,WeatherCatV1.10B1784,2013-01-29 05:41:00,
2013-01-28 21:46:00,42.8,36.7,30.23,NNW,343,7.0,8.0,79,0.00,,,0.00,WeatherCatV1.10B1784,2013-01-29 05:46:00,
2013-01-28 21:51:00,42.8,36.7,30.23,NNW,345,6.0,7.0,79,0.00,,,0.00,WeatherCatV1.10B1784,2013-01-29 05:51:00,
2013-01-28 21:56:00,42.8,36.7,30.23,NNW,343,6.0,9.0,79,0.00,,,0.00,WeatherCatV1.10B1784,2013-01-29 05:56:00,
2013-01-28 22:01:00,42.9,36.8,30.23,NNW,333,7.0,8.0,79,0.00,,,0.00,WeatherCatV1.10B1784,2013-01-29 06:01:00,
2013-01-28 22:06:00,42.9,36.8,30.23,North,354,5.0,9.0,79,0.00,,,0.00,WeatherCatV1.10B1784,2013-01-29 06:06:00,
2013-01-28 22:11:00,42.7,36.6,30.23,NNW,348,4.0,7.0,79,0.00,,,0.00,WeatherCatV1.10B1784,2013-01-29 06:11:00,
2013-01-28 22:16:00,42.5,36.5,30.23,NNW,345,7.0,11.0,79,0.00,,,0.00,WeatherCatV1.10B1784,2013-01-29 06:16:00,
2013-01-28 22:21:00,42.5,36.5,30.23,NNW,343,5.0,8.0,79,0.00,,,0.00,WeatherCatV1.10B1784,2013-01-29 06:21:00,
2013-01-28 22:26:00,42.5,36.5,30.23,NNW,335,6.0,8.0,79,0.00,,,0.00,WeatherCatV1.10B1784,2013-01-29 06:26:00,
2013-01-28 22:31:00,42.3,36.6,30.23,NNW,339,4.0,6.0,80,0.00,,,0.00,WeatherCatV1.10B1784,2013-01-29 06:31:00,
2013-01-28 22:36:00,42.0,36.6,30.23,NNW,338,5.0,8.0,81,0.00,,,0.00,WeatherCatV1.10B1784,2013-01-29 06:36:00,
2013-01-28 22:41:00,41.8,36.7,30.23,NNW,331,8.0,9.0,82,0.00,,,0.00,WeatherCatV1.10B1784,2013-01-29 06:41:00,
2013-01-28 22:46:00,41.5,36.4,30.23,NNW,329,6.0,9.0,82,0.00,,,0.00,WeatherCatV1.10B1784,2013-01-29 06:46:00,
2013-01-28 22:51:00,41.5,36.1,30.23,NNW,336,7.0,9.0,81,0.00,,,0.00,WeatherCatV1.10B1784,2013-01-29 06:51:00,
2013-01-28 22:56:00,41.6,36.2,30.23,NNW,329,7.0,10.0,81,0.00,,,0.00,WeatherCatV1.10B1784,2013-01-29 06:56:00,
2013-01-28 23:01:00,41.6,36.2,30.23,NNW,343,5.0,8.0,81,0.00,,,0.00,WeatherCatV1.10B1784,2013-01-29 07:01:00,
2013-01-28 23:06:00,41.5,36.1,30.23,NW,323,11.0,12.0,81,0.00,,,0.00,WeatherCatV1.10B1784,2013-01-29 07:06:00,
2013-01-28 23:11:00,41.6,36.2,30.23,NNW,327,6.0,8.0,81,0.00,,,0.00,WeatherCatV1.10B1784,2013-01-29 07:11:00,
2013-01-28 23:16:00,41.5,36.1,30.23,NNW,334,5.0,8.0,81,0.00,,,0.00,WeatherCatV1.10B1784,2013-01-29 07:16:00,
2013-01-28 23:21:00,41.5,36.4,30.23,NNW,327,5.0,7.0,82,0.00,,,0.00,WeatherCatV1.10B1784,2013-01-29 07:21:00,
2013-01-28 23:26:00,41.5,36.4,30.23,NNW,339,7.0,10.0,82,0.00,,,0.00,WeatherCatV1.10B1784,2013-01-29 07:26:00,
2013-01-28 23:31:00,41.5,36.1,30.23,NNW,341,7.0,7.0,81,0.00,,,0.00,WeatherCatV1.10B1784,2013-01-29 07:31:00,
2013-01-28 23:36:00,41.4,36.3,30.23,NNW,339,5.0,8.0,82,0.00,,,0.00,WeatherCatV1.10B1784,2013-01-29 07:36:00,
2013-01-28 23:41:00,41.4,36.3,30.23,NNW,347,4.0,8.0,82,0.00,,,0.00,WeatherCatV1.10B1784,2013-01-29 07:41:00,
2013-01-28 23:46:00,41.5,36.1,30.23,SE,134,3.0,7.0,81,0.00,,,0.00,WeatherCatV1.10B1784,2013-01-29 07:46:00,
2013-01-28 23:51:00,41.5,36.1,30.23,NNW,337,5.0,8.0,81,0.00,,,0.00,WeatherCatV1.10B1784,2013-01-29 07:51:00,
2013-01-28 23:56:00,41.6,36.2,30.23,NNW,342,2.0,4.0,81,0.00,,,0.00,WeatherCatV1.10B1784,2013-01-29 07:56:00,